Content
SEND FEEDBACK

Daily
Averages
Monthly
Summary
United States of America

ORANGE PARK, FLORIDA


Home > North America > United States > Florida
Elevation: 30 feet     Latitude: 30 13N     Longitude: 081 40W

WEATHER
 
SELECT A DAY
Number of Records: 184,110;   Date Range: 1/1/95 - 10/23/14
 
SHARE

PRINT THIS DATA

[ ← Previous Day ]
WEATHER ALMANAC - JANUARY 31, 2013
[ Next Day → ]
[ °C ]   °F
Weather ElementAverageHighLow
Temperature52.8 °F57.9 °F (2:53 pm)46.9 °F (9:53 pm)
Dewpoint33.8 °F51.1 °F (1:53 am)23 °F (1:53 pm)
Humidity52.6 %88 % (1:04 am)26 % (2:53 pm)
Barometer30.11 in30.26 in (10:53 pm)29.91 in (12:53 am)
Wind Speed9.3 mph15 mph (11:53 am)
Wind Gust21.9 mph (6:53 am)
Weather ElementAverage
Visibility9.6 mi
Wind DirectionWNW (280.8 °)

Weather ElementTotal
Precipitation0.06 in
Heating Degree Days12.6 (Base 65)
Growing Degree Days2.4 (Base 50)
Averaged from 25 records on January 31, 2013
WEATHER CONDITIONS BREAKOUT
WIND DIRECTION BREAKOUT
WEATHER BY HOUR - JANUARY 31, 2013
[ °C ]   °F
Local TimeTemperatureDewpointHumidityBarometerVisibilityWind DirectionWind SpeedGust SpeedPrecipitationEventsConditions
12:53 AM54.0 °F50.0 °F86 %29.91 in3.0 miWSW (250°)8.1 mph0.06 inRainLight Rain
1:04 AM53.6 °F50.0 °F88 %29.93 in7.0 miWSW (240°)9.2 mph0.00 inOvercast
1:53 AM55.0 °F51.1 °F86 %29.94 in10.0 miWSW (240°)8.1 mph0.00 inMostly Cloudy
2:53 AM55.0 °F50.0 °F83 %29.96 in10.0 miWest (260°)8.1 mphOvercast
3:53 AM54.0 °F48.9 °F83 %29.96 in10.0 miWest (260°)8.1 mphMostly Cloudy
4:53 AM53.1 °F46.9 °F80 %29.98 in10.0 miWest (280°)4.6 mphScattered Clouds
5:53 AM53.1 °F44.1 °F71 %30.01 in10.0 miWNW (300°)12.7 mph19.6 mphScattered Clouds
6:53 AM50.0 °F37.0 °F61 %30.06 in10.0 miWNW (300°)13.8 mph21.9 mphScattered Clouds
7:53 AM48.0 °F36.0 °F63 %30.09 in10.0 miWNW (300°)11.5 mphPartly Cloudy
8:53 AM48.0 °F33.1 °F56 %30.13 in10.0 miNW (310°)9.2 mphPartly Cloudy
9:53 AM48.9 °F32.0 °F52 %30.15 in10.0 miWNW (300°)8.1 mph19.6 mphPartly Cloudy
10:53 AM51.1 °F28.9 °F43 %30.16 in10.0 miWNW (300°)12.7 mphPartly Cloudy
11:53 AM54.0 °F26.1 °F34 %30.15 in10.0 miNW (320°)15.0 mphPartly Cloudy
12:53 PM55.9 °F26.1 °F32 %30.15 in10.0 miWest (280°)11.5 mph19.6 mphPartly Cloudy
1:53 PM57.0 °F23.0 °F27 %30.13 in10.0 miWNW (300°)10.4 mph18.4 mphPartly Cloudy
2:53 PM57.9 °F23.0 °F26 %30.13 in10.0 miWest (280°)15.0 mph21.9 mphPartly Cloudy
3:53 PM57.9 °F23.0 °F26 %30.13 in10.0 miWNW (290°)6.9 mph18.4 mphPartly Cloudy
4:53 PM57.9 °F24.1 °F27 %30.14 in10.0 miWNW (290°)13.8 mph18.4 mphPartly Cloudy
5:53 PM57.0 °F24.1 °F28 %30.16 in10.0 miWNW (290°)9.2 mph16.1 mphPartly Cloudy
6:53 PM54.0 °F26.1 °F34 %30.19 in10.0 miWNW (290°)4.6 mphPartly Cloudy
7:53 PM52.0 °F27.0 °F38 %30.20 in10.0 miWest (270°)4.6 mphPartly Cloudy
8:53 PM50.0 °F28.9 °F44 %30.23 in10.0 miWSW (250°)5.8 mphPartly Cloudy
9:53 PM46.9 °F30.0 °F52 %30.25 in10.0 miWest (260°)5.8 mphPartly Cloudy
10:53 PM48.0 °F28.0 °F46 %30.26 in10.0 miWest (270°)6.9 mphMostly Cloudy
11:53 PM46.9 °F28.0 °F48 %30.26 in10.0 miWNW (290°)8.1 mphMostly Cloudy
Hourly data recorded from KNIP, located miles away from Orange Park, Florida







STORIES FROM OUR PARTNERS